Weather History for Biloxi, MS

Change the Weather History Date:

Monday, November 26, 2012

  Actual Average Record
Temperature  
Mean Temperature 58 °F -  
Max Temperature 68 °F 69 °F 82 °F (1951)
Min Temperature 48 °F 50 °F 27 °F (1950)
Degree Days  
Heating Degree Days 7    
Growing Degree Days 8 (Base 50)    
Moisture  
Dew Point 59 °F    
Average Humidity 87    
Maximum Humidity 96    
Minimum Humidity 75    
Precipitation  
Precipitation 0.01 in - - ()
Sea Level Pressure  
Sea Level Pressure 30.13 in    
Wind  
Wind Speed 4 mph (SE)    
Max Wind Speed 8 mph    
Max Gust Speed -    
Visibility 10 miles    
Events Rain    
Averages and records for this station are not official NWS values.
T = Trace of Precipitation, MM = Missing Value Source: NWS Daily Summary

Daily Weather History Graph

Daily Weather History Graph

Search for Another Location

Airport:

Trip Planner

Search our weather history database for the weather conditions in past years. The results will help you decide how hot, cold, wet, or windy it might be!

Date:

Astronomy

Nov. 26, 2012 Rise Set
Actual Time 6:31 AM CST 4:55 PM CST
Civil Twilight 6:05 AM CST 5:20 PM CST
Nautical Twilight 5:35 AM CST 5:50 PM CST
Astronomical Twilight 5:06 AM CST 6:19 PM CST
Moon 3:43 PM CST (11/26) 4:45 AM CST (11/26)
Length of Visible Light 11h 15m
Length of Day
10h 23m
Waxing Gibbous, 97% of the Moon is Illuminated
Nov 26
Waxing Gibbous
Nov 28
Full
Dec 6
Last Quarter
Dec 13
New
Dec 19
First Quarter

Hourly Weather History & Observations

Time (CST) Temp. Dew Point Humidity Pressure Visibility Wind Dir Wind Speed Gust Speed Precip Events Conditions
12:55 AM 59.4 °F 54.5 °F 84% 30.12 in 10.0 mi South 6.9 mph - N/A   Clear
1:55 AM 53.1 °F 51.8 °F 95% 30.12 in 10.0 mi Calm Calm - N/A   Clear
2:55 AM 48.6 °F 47.5 °F 96% 30.12 in 10.0 mi Calm Calm - N/A   Clear
3:55 AM 48.7 °F 47.7 °F 96% 30.11 in 10.0 mi NE 3.5 mph - N/A   Clear
4:55 AM 48.0 °F 46.8 °F 95% 30.12 in 10.0 mi Calm Calm - N/A   Clear
5:55 AM 50.7 °F 49.6 °F 96% 30.12 in 10.0 mi NNE 3.5 mph - N/A   Mostly Cloudy
6:55 AM 51.6 °F 50.5 °F 96% 30.14 in 10.0 mi Calm Calm - N/A   Scattered Clouds
7:55 AM 55.6 °F 54.0 °F 94% 30.15 in 10.0 mi Calm Calm - N/A   Clear
8:55 AM 59.5 °F 55.6 °F 87% 30.17 in 10.0 mi East 3.5 mph - N/A   Mostly Cloudy
9:55 AM 64.0 °F 57.6 °F 79% 30.17 in 10.0 mi ESE 4.6 mph - N/A   Mostly Cloudy
10:55 AM 68.0 °F 59.9 °F 75% 30.16 in 10.0 mi SE 8.1 mph - N/A   Scattered Clouds
11:54 AM 68.0 °F 60.8 °F 78% 30.15 in 10.0 mi SSE 6.9 mph - N/A Rain Light Rain
11:55 AM 68.5 °F 61.7 °F 79% 30.15 in 10.0 mi SSE 8.1 mph - 0.00 in Rain Light Rain
12:06 PM 68.0 °F 62.6 °F 83% 30.14 in 10.0 mi SSE 8.1 mph - N/A   Clear
12:55 PM 68.5 °F 61.3 °F 78% 30.13 in 10.0 mi SSE 8.1 mph - 0.00 in   Scattered Clouds
1:55 PM 68.5 °F 61.2 °F 77% 30.12 in 10.0 mi South 4.6 mph - N/A   Mostly Cloudy
2:55 PM 68.7 °F 61.2 °F 77% 30.11 in 10.0 mi SSE 4.6 mph - N/A   Mostly Cloudy
3:55 PM 66.7 °F 61.9 °F 84% 30.11 in 10.0 mi SSE 4.6 mph - N/A   Overcast
4:55 PM 66.9 °F 61.7 °F 83% 30.11 in 10.0 mi SSE 5.8 mph - N/A   Overcast
5:08 PM 66.2 °F 62.6 °F 88% 30.12 in 10.0 mi SSE 6.9 mph - N/A   Overcast
5:15 PM 66.2 °F 60.8 °F 83% 30.12 in 10.0 mi SE 5.8 mph - N/A Rain Light Rain
5:35 PM 66.2 °F 62.6 °F 88% 30.12 in 10.0 mi SE 5.8 mph - N/A Rain Light Rain
5:42 PM 66.2 °F 62.6 °F 88% 30.12 in 10.0 mi SE 5.8 mph - N/A   Scattered Clouds
5:55 PM 66.6 °F 62.2 °F 86% 30.12 in 10.0 mi SE 5.8 mph - 0.00 in   Scattered Clouds
6:29 PM 66.2 °F 62.6 °F 88% 30.13 in 10.0 mi SE 3.5 mph - N/A Rain Light Rain
6:42 PM 66.2 °F 62.6 °F 88% 30.13 in 10.0 mi Calm Calm - N/A   Mostly Cloudy
6:55 PM 66.0 °F 62.8 °F 89% 30.13 in 10.0 mi ESE 3.5 mph - 0.00 in   Overcast
7:19 PM 66.2 °F 62.6 °F 88% 30.13 in 10.0 mi SE 4.6 mph - N/A Rain Light Rain
7:29 PM 66.2 °F 62.6 °F 88% 30.13 in 10.0 mi SE 4.6 mph - N/A   Mostly Cloudy
7:55 PM 65.8 °F 62.2 °F 88% 30.13 in 10.0 mi Variable 4.6 mph - 0.01 in   Mostly Cloudy
8:55 PM 66.2 °F 61.5 °F 85% 30.13 in 10.0 mi SSE 5.8 mph - N/A   Partly Cloudy
9:55 PM 66.6 °F 63.1 °F 89% 30.14 in 10.0 mi SSE 6.9 mph - N/A   Mostly Cloudy
10:55 PM 66.6 °F 63.5 °F 90% 30.13 in 10.0 mi SSE 6.9 mph - N/A   Overcast
11:55 PM 66.4 °F 63.7 °F 91% 30.12 in 10.0 mi South 6.9 mph - N/A   Overcast